When you browse on this site, cookies collect data to enhance your experience and personalize the content and advertising you see.
Visit our Privacy Policy to learn more. By continuing to use the site, you agree to this use of cookies and data.
  • In Hungary
  • List of Countries
  • For 7 days
  • Water Temperature
  • Weather Map
  • News
  • Weather Widgets
  • user-avatar
    Login

    Hourly Weather Gryaznoe

    Today, 22 October, Tuesday

    Time Temperature Precipitation Wind Pressure Humidity
    00:00 +12°C° 0 mm 2 mps 746 mmHg 91%
    01:00 +12°C° 0.6 mm 2 mps 747 mmHg 92%
    02:00 +12°C° 0.6 mm 2 mps 747 mmHg 93%
    03:00 +12°C° 0 mm 2 mps 747 mmHg 94%
    04:00 +10°C° 0.2 mm 2 mps 748 mmHg 95%
    05:00 +11°C° 0.2 mm 1 mps 748 mmHg 95%
    06:00 +11°C° 0.2 mm 1 mps 748 mmHg 95%
    07:00 +11°C° 0 mm 1 mps 748 mmHg 93%
    08:00 +11°C° 0 mm 1 mps 748 mmHg 92%
    09:00 +11°C° 0 mm 1 mps 749 mmHg 89%
    10:00 +12°C° 0 mm 1 mps 749 mmHg 84%
    11:00 +12°C° 0 mm 1 mps 749 mmHg 78%
    12:00 +13°C° 0 mm 1 mps 749 mmHg 73%
    13:00 +13°C° 0 mm 1 mps 749 mmHg 70%
    14:00 +14°C° 0 mm 2 mps 749 mmHg 67%
    15:00 +14°C° 0 mm 1 mps 749 mmHg 71%
    16:00 +13°C° 0 mm 1 mps 749 mmHg 75%
    17:00 +12°C° 0 mm 1 mps 749 mmHg 78%
    18:00 +10°C° 0 mm 0 mps 748 mmHg 82%
    19:00 +11°C° 0 mm 1 mps 748 mmHg 84%
    20:00 +9°C° 0 mm 2 mps 748 mmHg 85%
    21:00 +9°C° 0 mm 2 mps 748 mmHg 86%
    22:00 +10°C° 0 mm 3 mps 747 mmHg 87%
    23:00 +10°C° 0 mm 3 mps 747 mmHg 89%

    Tomorrow, 23 October, Wednesday

    Time Temperature Precipitation Wind Pressure Humidity
    00:00 +10°C° 0 mm 4 mps 747 mmHg 90%
    01:00 +10°C° 0 mm 4 mps 746 mmHg 91%
    02:00 +10°C° 0 mm 5 mps 746 mmHg 92%
    03:00 +10°C° 0 mm 5 mps 746 mmHg 93%
    04:00 +10°C° 0 mm 5 mps 746 mmHg 94%
    05:00 +10°C° 0 mm 5 mps 745 mmHg 94%
    06:00 +12°C° 0 mm 5 mps 745 mmHg 94%
    07:00 +12°C° 0 mm 5 mps 745 mmHg 93%
    08:00 +12°C° 0 mm 5 mps 745 mmHg 92%
    09:00 +12°C° 0 mm 5 mps 745 mmHg 91%
    10:00 +12°C° 0.7 mm 5 mps 745 mmHg 90%
    11:00 +13°C° 0.7 mm 5 mps 745 mmHg 88%
    12:00 +13°C° 0.7 mm 6 mps 745 mmHg 87%
    13:00 +13°C° 0 mm 5 mps 745 mmHg 85%
    14:00 +13°C° 0 mm 5 mps 745 mmHg 84%
    15:00 +13°C° 0 mm 4 mps 745 mmHg 82%
    16:00 +13°C° 0 mm 4 mps 745 mmHg 82%
    17:00 +13°C° 0 mm 3 mps 745 mmHg 82%
    18:00 +12°C° 0 mm 3 mps 745 mmHg 82%
    19:00 +12°C° 0 mm 3 mps 745 mmHg 82%
    20:00 +11°C° 0 mm 3 mps 745 mmHg 83%
    21:00 +10°C° 0 mm 2 mps 745 mmHg 83%
    22:00 +10°C° 0 mm 2 mps 746 mmHg 85%
    23:00 +9°C° 0 mm 2 mps 746 mmHg 87%

    Day after tomorrow, 24 October, Thursday

    Time Temperature Precipitation Wind Pressure Humidity
    00:00 +8°C° 0 mm 2 mps 746 mmHg 89%
    01:00 +8°C° 0 mm 2 mps 746 mmHg 89%
    02:00 +9°C° 0 mm 1 mps 746 mmHg 90%
    03:00 +8°C° 0 mm 1 mps 746 mmHg 91%
    04:00 +8°C° 0 mm 1 mps 746 mmHg 91%
    05:00 +8°C° 0 mm 1 mps 746 mmHg 91%
    06:00 +7°C° 0 mm 2 mps 746 mmHg 91%
    07:00 +9°C° 0 mm 1 mps 746 mmHg 88%
    08:00 +9°C° 0 mm 1 mps 746 mmHg 86%
    09:00 +10°C° 0 mm 1 mps 746 mmHg 84%
    10:00 +10°C° 0 mm 1 mps 747 mmHg 79%
    11:00 +10°C° 0 mm 2 mps 747 mmHg 74%
    12:00 +12°C° 0 mm 2 mps 747 mmHg 69%
    13:00 +12°C° 0 mm 2 mps 747 mmHg 68%
    14:00 +12°C° 0 mm 1 mps 747 mmHg 67%
    15:00 +12°C° 0 mm 1 mps 747 mmHg 66%
    16:00 +12°C° 0 mm 1 mps 747 mmHg 68%
    17:00 +11°C° 0 mm 1 mps 747 mmHg 71%
    18:00 +11°C° 0 mm 1 mps 747 mmHg 73%
    19:00 +10°C° 0 mm 1 mps 747 mmHg 75%
    20:00 +10°C° 0 mm 1 mps 747 mmHg 77%
    21:00 +9°C° 0 mm 1 mps 748 mmHg 78%
    22:00 +9°C° 0 mm 1 mps 748 mmHg 80%
    23:00 +8°C° 0 mm 1 mps 748 mmHg 82%

    25 October, Friday

    Time Temperature Precipitation Wind Pressure Humidity
    00:00 +7°C° 0 mm 0 mps 748 mmHg 84%
    01:00 +8°C° 0 mm 1 mps 748 mmHg 85%
    02:00 +8°C° 0 mm 1 mps 748 mmHg 85%
    03:00 +7°C° 0 mm 1 mps 748 mmHg 86%
    04:00 +7°C° 0 mm 1 mps 748 mmHg 87%
    05:00 +7°C° 0 mm 1 mps 748 mmHg 87%
    06:00 +6°C° 0 mm 0 mps 748 mmHg 88%
    07:00 +6°C° 0 mm 0 mps 748 mmHg 86%
    08:00 +7°C° 0 mm 0 mps 749 mmHg 84%
    09:00 +7°C° 0 mm 0 mps 749 mmHg 82%
    10:00 +8°C° 0 mm 0 mps 749 mmHg 78%
    11:00 +9°C° 0 mm 0 mps 749 mmHg 73%
    12:00 +10°C° 0 mm 0 mps 749 mmHg 69%
    13:00 +12°C° 0 mm 1 mps 749 mmHg 68%
    14:00 +12°C° 0 mm 1 mps 749 mmHg 67%
    15:00 +12°C° 0 mm 1 mps 749 mmHg 65%
    16:00 +11°C° 0 mm 1 mps 748 mmHg 70%
    17:00 +10°C° 0 mm 1 mps 748 mmHg 74%
    18:00 +10°C° 0 mm 1 mps 748 mmHg 79%
    19:00 +9°C° 0 mm 1 mps 748 mmHg 81%
    20:00 +8°C° 0 mm 2 mps 748 mmHg 83%
    21:00 +8°C° 0 mm 2 mps 748 mmHg 85%
    22:00 +7°C° 0 mm 2 mps 748 mmHg 86%
    23:00 +7°C° 0 mm 2 mps 748 mmHg 88%

    26 October, Saturday

    Time Temperature Precipitation Wind Pressure Humidity
    00:00 +7°C° 0 mm 3 mps 748 mmHg 89%
    01:00 +7°C° 0 mm 3 mps 747 mmHg 90%
    02:00 +5°C° 0 mm 3 mps 747 mmHg 90%
    03:00 +5°C° 0 mm 3 mps 747 mmHg 91%
    04:00 +5°C° 0 mm 3 mps 747 mmHg 91%
    05:00 +5°C° 0 mm 3 mps 747 mmHg 91%
    06:00 +5°C° 0 mm 3 mps 747 mmHg 91%
    07:00 +5°C° 0 mm 3 mps 746 mmHg 90%
    08:00 +7°C° 0 mm 3 mps 746 mmHg 88%
    09:00 +6°C° 0 mm 4 mps 746 mmHg 86%
    10:00 +8°C° 0 mm 4 mps 746 mmHg 82%
    11:00 +10°C° 0 mm 4 mps 746 mmHg 78%
    12:00 +11°C° 0 mm 4 mps 746 mmHg 75%
    13:00 +12°C° 0 mm 5 mps 746 mmHg 74%
    14:00 +12°C° 0 mm 5 mps 745 mmHg 73%
    15:00 +12°C° 0 mm 5 mps 745 mmHg 72%
    16:00 +12°C° 0 mm 4 mps 744 mmHg 76%
    17:00 +11°C° 0 mm 4 mps 744 mmHg 80%
    18:00 +10°C° 0 mm 4 mps 744 mmHg 84%
    19:00 +10°C° 0 mm 4 mps 744 mmHg 86%
    20:00 +10°C° 0 mm 4 mps 744 mmHg 88%
    21:00 +8°C° 0 mm 4 mps 744 mmHg 89%
    22:00 +8°C° 0 mm 4 mps 743 mmHg 90%
    23:00 +8°C° 0 mm 4 mps 743 mmHg 91%

    27 October, Sunday

    Time Temperature Precipitation Wind Pressure Humidity
    00:00 +8°C° 0 mm 4 mps 743 mmHg 92%
    01:00 +8°C° 0 mm 5 mps 742 mmHg 91%
    02:00 +8°C° 0 mm 5 mps 742 mmHg 91%
    03:00 +8°C° 0 mm 5 mps 742 mmHg 91%
    04:00 +8°C° 0 mm 5 mps 741 mmHg 91%
    05:00 +8°C° 0 mm 5 mps 741 mmHg 90%
    06:00 +8°C° 0 mm 5 mps 740 mmHg 90%
    07:00 +8°C° 0 mm 6 mps 740 mmHg 88%
    08:00 +8°C° 0 mm 6 mps 740 mmHg 86%
    09:00 +9°C° 0 mm 7 mps 739 mmHg 84%
    10:00 +10°C° 0 mm 7 mps 739 mmHg 82%
    11:00 +10°C° 0 mm 7 mps 739 mmHg 79%
    12:00 +11°C° 0 mm 7 mps 738 mmHg 77%
    13:00 +12°C° 0 mm 7 mps 738 mmHg 76%
    14:00 +12°C° 0 mm 7 mps 737 mmHg 76%
    15:00 +13°C° 0 mm 6 mps 737 mmHg 75%
    16:00 +13°C° 0 mm 6 mps 736 mmHg 77%
    17:00 +13°C° 0 mm 6 mps 736 mmHg 79%
    18:00 +11°C° 0 mm 6 mps 735 mmHg 80%
    19:00 +11°C° 0.1 mm 7 mps 735 mmHg 81%
    20:00 +11°C° 0.1 mm 7 mps 734 mmHg 82%
    21:00 +11°C° 0.1 mm 8 mps 734 mmHg 82%
    22:00 +11°C° 0.6 mm 7 mps 734 mmHg 84%
    23:00 +10°C° 0.6 mm 7 mps 734 mmHg 86%

    28 October, Monday

    Time Temperature Precipitation Wind Pressure Humidity
    00:00 +10°C° 0.6 mm 7 mps 734 mmHg 88%
    01:00 +9°C° 0.8 mm 7 mps 734 mmHg 86%
    02:00 +8°C° 0.8 mm 7 mps 735 mmHg 84%
    03:00 +7°C° 0.8 mm 6 mps 735 mmHg 82%
    04:00 +5°C° 0 mm 6 mps 735 mmHg 83%
    05:00 +5°C° 0 mm 5 mps 736 mmHg 83%
    06:00 +5°C° 0 mm 4 mps 736 mmHg 84%
    07:00 +5°C° 0 mm 4 mps 736 mmHg 84%
    08:00 +3°C° 0 mm 5 mps 736 mmHg 83%
    09:00 +3°C° 0 mm 5 mps 736 mmHg 82%
    10:00 +4°C° 0 mm 6 mps 736 mmHg 79%
    11:00 +4°C° 0 mm 6 mps 736 mmHg 75%
    12:00 +4°C° 0 mm 6 mps 736 mmHg 71%
    13:00 +4°C° 0 mm 6 mps 736 mmHg 72%
    14:00 +4°C° 0 mm 6 mps 736 mmHg 72%
    15:00 +4°C° 0 mm 6 mps 736 mmHg 73%
    16:00 +4°C° 0.1 mm 6 mps 735 mmHg 76%
    17:00 +3°C° 0.1 mm 6 mps 735 mmHg 80%
    18:00 +3°C° 0.1 mm 6 mps 735 mmHg 83%
    19:00 +3°C° 0 mm 6 mps 735 mmHg 83%
    20:00 +3°C° 0 mm 6 mps 735 mmHg 82%
    21:00 +3°C° 0 mm 5 mps 734 mmHg 81%
    22:00 +3°C° 0 mm 6 mps 734 mmHg 82%
    23:00 +3°C° 0 mm 6 mps 734 mmHg 82%
    Show more